Flag for Mayotte Weather past 2 weeks in Mamoutzou, Mayotte

Now
79 °F

Passing clouds.


Feels Like: 81 °F
Forecast: 70 / 79 °F
Wind: 3 mph from West

Location: Dzaoudzi / Pamanzi Mayotte

Current Time: Aug 31, 2015 at 8:19:23 AM

Latest Report: Aug 31, 2015 at 8:05 AM


Visibility: N/A

Pressure: 30.09 "Hg

Humidity: 74%

Dew point: 70 °F

Location of MamoutzouLocation

Historic Weather in Mamoutzou — Graph

°F

Mamoutzou temperature yesterday

Maximum temperature yesterday: 84 °F (at 12:00 PM)
Minimum temperature yesterday: 72 °F (at 1:30 AM)
Average temperature yesterday: 77 °F

Past Weeks' High & Low Weather Summary

 TemperatureHumidityPressure
High86 °F (Aug 28, 10:00 AM)94% (Aug 20, 3:00 AM)30.12 "Hg (Aug 20, 3:00 AM)
Low68 °F (Aug 20, 3:00 AM)55% (Aug 18, 1:00 PM)29.95 "Hg (Aug 18, 2:00 PM)
Average77 °F72%30.04 "Hg
* Reported Aug 16 7:00 AM — Aug 31 7:00 AM, Mamoutzou, Weather by CustomWeather, © 2015

Note: Actual official high and low records may vary slightly from our data, if they occured in-between our weather recording intervals... More about our weather records

Advertising

Mamoutzou weather history for previous 24 hours

 ConditionsComfort  
Time TempWeatherWind HumidityBarometerVisibility
7:00 AM
Mon, Aug 31
73 °FScattered clouds.6 mph94%30.07 "HgN/A
6:40 AM72 °FPassing clouds.6 mph88%30.07 "HgN/A
6:30 AM70 °FPassing clouds.3 mph94%30.07 "HgN/A
6:00 AM70 °FPassing clouds.No wind94%30.04 "HgN/A
5:30 AM70 °FPassing clouds.3 mph94%30.04 "HgN/A
5:00 AM70 °FPassing clouds.5 mph94%30.01 "HgN/A
4:30 AM70 °FMild.5 mph88%30.01 "HgN/A
4:00 AM70 °FMild.3 mph88%30.01 "HgN/A
3:30 AM72 °FMild.5 mph88%30.01 "HgN/A
3:00 AM72 °FMild.3 mph88%30.01 "HgN/A
2:30 AM72 °FMild.2 mph88%30.04 "HgN/A
2:00 AM73 °FMild.2 mph83%30.04 "HgN/A
1:30 AM73 °FMild.3 mph83%30.04 "HgN/A
1:00 AM73 °FMild.6 mph83%30.04 "HgN/A
12:30 AM72 °FMild.3 mph83%30.04 "HgN/A
12:00 AM73 °FMild.2 mph83%30.07 "HgN/A
11:30 PM
Sun, Aug 30
73 °FMild.3 mph83%30.07 "HgN/A
11:00 PM73 °FMild.5 mph83%30.07 "HgN/A
10:30 PM73 °FMild.5 mph83%30.07 "HgN/A
10:00 PM73 °FMild.3 mph83%30.07 "HgN/A
9:30 PM73 °FMild.2 mph83%30.07 "HgN/A
9:00 PM75 °FMild.2 mph74%30.07 "HgN/A
8:30 PM75 °FPassing clouds.3 mph78%30.04 "HgN/A
8:00 PM77 °FPassing clouds.3 mph74%30.04 "HgN/A
7:30 PM77 °FMostly cloudy.5 mph74%30.04 "HgN/A
7:00 PM77 °FPassing clouds.6 mph74%30.04 "HgN/A
6:30 PM77 °FPartly cloudy.6 mph74%30.04 "HgN/A
6:00 PM79 °FPassing clouds.7 mph70%30.01 "HgN/A
5:30 PM79 °FBroken clouds.8 mph70%30.01 "HgN/A
5:00 PM79 °FBroken clouds.6 mph65%30.01 "HgN/A
4:30 PM81 °FScattered clouds.8 mph62%30.01 "HgN/A
4:00 PM82 °FPassing clouds.8 mph58%30.01 "HgN/A
3:30 PM82 °FPassing clouds.9 mph62%30.01 "HgN/A
3:00 PM81 °FScattered clouds.9 mph62%30.01 "HgN/A
2:30 PM82 °FScattered clouds.9 mph62%30.01 "HgN/A
2:00 PM82 °FScattered clouds.9 mph58%30.01 "HgN/A
1:30 PM84 °FBroken clouds.9 mph55%30.04 "HgN/A
1:00 PM82 °FBroken clouds.9 mph62%30.04 "HgN/A
12:35 PM84 °FBroken clouds.6 mph55%30.04 "HgN/A
12:00 PM84 °FPartly sunny.6 mph58%30.07 "HgN/A
11:30 AM81 °FBroken clouds.7 mph66%30.07 "HgN/A
11:00 AM79 °FBroken clouds.6 mph70%30.09 "HgN/A
10:30 AM77 °FBroken clouds.5 mph74%30.09 "HgN/A
10:00 AM75 °FSprinkles. Broken clouds.8 mph74%30.12 "HgN/A
9:30 AM81 °FPartly sunny.2 mph62%30.09 "HgN/A
9:04 AM79 °FBroken clouds.1 mph70%30.09 "HgN/A
8:30 AM79 °FPartly sunny.3 mph70%30.09 "HgN/A
8:00 AM77 °FBroken clouds.1 mph74%30.07 "HgN/A
Weather by CustomWeather, © 2015

See weather overviewHow to use our weather pages